Regional Weather Roundup
Issued by NWS Huntsville, AL

Home | Current Version | Previous Version | Text Only | Print | Product List | Glossary On
Versions: 1 2 3 4 5 6 7 8 9 10 11 12 13 14 15 16 17 18 19 20 21 22 23 24 25 26 27 28 29 30 31 32 33 34 35 36 37 38 39 40 41 42 43 44 45 46 47 48 49 50
000
ASUS44 KHUN 260710
RWRHUN

WEATHER ROUNDUP FOR THE TENNESSEE VALLEY
NATIONAL WEATHER SERVICE HUNTSVILLE AL
200 AM CDT MON JUN 26 2017

ALZ001>004-260800-
NORTHWEST ALABAMA

CITY           SKY/WX    TMP DP  RH WIND       PRES   REMARKS
COURTLAND HCN    N/A     59 N/A N/A CALM        N/A
RUSSELLVILLE     N/A     55 N/A N/A MISG        N/A
SHOALS AIRPORT PTCLDY    60  56  86 CALM      30.19S
SHOALS TVA RES   N/A     57 N/A N/A MISG        N/A
$$

ALZ005>007-016-260800-
NORTH CENTRAL ALABAMA

CITY           SKY/WX    TMP DP  RH WIND       PRES   REMARKS
CULLMAN AG STN   N/A     57 N/A N/A CALM        N/A
DECATUR AP     CLEAR     58  57  97 MISG      30.18S
HUNTSVILLE AP  CLEAR     62  60  93 SE3       30.17F
MERIDIANVILLE  CLEAR     57  55  94 CALM      30.18S
REDSTONE ARSN  CLEAR     59  56  90 S3        30.16F
VINEMONT AP    FAIR      55  55  97 CALM      30.20F
$$

ALZ008>010-260800-
NORTHEAST ALABAMA

CITY           SKY/WX    TMP DP  RH WIND       PRES   REMARKS
ALBERTVILLE    CLEAR     59  59 100 CALM      30.18S
FORT PAYNE     NOT AVBL
SCOTTSBORO AP  CLEAR     57  57 100 CALM      30.19S
SCOTTSBORO HCN   N/A     57 N/A N/A MISG        N/A
VALLEY HEAD      N/A     54 N/A N/A MISG        N/A
$$

TNZ076-096-097-260800-
SOUTHEASTERN MIDDLE TENNESSEE

CITY           SKY/WX    TMP DP  RH WIND       PRES   REMARKS
TULLAHOMA      CLEAR     54  52  94 CALM      30.19F
WINCHESTER     CLEAR     55  54  94 CALM        N/A
$$

...SURROUNDING SITES...

CITY           SKY/WX    TMP DP  RH WIND       PRES   REMARKS
ATLANTA        PTCLDY    65  62  90 NW9       30.13F
ANNISTON       CLEAR     61  59  93 CALM      30.16F
BIRMINGHAM     CLEAR     63  61  93 CALM      30.19F
CHATTANOOGA    CLEAR     60  56  86 CALM      30.18S
CORINTH        FAIR      61  59  94 CALM      30.17F FOG
DALTON         CLEAR     55  55 100 CALM      30.17S
GADSDEN        CLEAR     59  59 100 CALM      30.17F
GOLDEN TRNGL   CLEAR     63  57  82 NW3       30.14S
JACKSON TN     CLEAR     61  58  90 S5        30.17F
MEMPHIS        CLEAR     65  59  81 CALM      30.17F
NASHVILLE      CLEAR     63  56  78 CALM      30.17S
OXFORD MS      FAIR      59  57  94 CALM      30.20S
ROME           CLEAR     59  59 100 CALM      30.16F
SAVANNAH       CLEAR     57  57 100 CALM      30.17S
SELMER         CLEAR     59  57  94 CALM      30.17F
TUPELO         CLEAR     63  60  90 CALM      30.17F
TUSCALOOSA     CLEAR     63  63 100 CALM      30.16F
$$

...GULF COAST WEATHER...

CITY           SKY/WX    TMP DP  RH WIND       PRES   REMARKS
GULFPORT       CLEAR     73  68  84 N5        30.11F
PASCAGOULA     CLEAR     72  66  81 N5        30.11F
MOBILE         CLEAR     71  65  81 NE6       30.12F
GULF SHORES    MOSUNNY   71  67  87 NE7       30.10F
PENSACOLA      CLEAR     73  63  70 N6        30.10F
DESTIN         CLOUDY    78  74  87 N7        30.09F
PANAMA CITY    DRIZZLE   75  73  93 N5        30.08F
APPALACHICOLA  CLOUDY    75  75 100 CALM      30.07F
$$




USA.gov is the U.S. government's official web portal to all federal, state and local government web resources and services.